Moab, UT

11:52 AM MDT on October 20, 2019 (GMT -0600)
Canyonlands

Weather History for KCNY - August, 2019

Change the Weather History Date:

Friday, August 23, 2019

  Actual Average Record
Temperature  
Mean Temperature 78 °F 75 °F  
Max Temperature 97 °F 91 °F 105 °F (1991)
Min Temperature 58 °F 60 °F 44 °F (1928)
Degree Days  
Heating Degree Days 0 0  
Month to date heating degree days 0 0  
Since 1 June heating degree days 23 17  
Since 1 July heating degree days 0 0  
Cooling Degree Days 13 10  
Month to date cooling degree days 364 300  
Year to date cooling degree days 1137 1093  
Since 1 June cooling degree days 1122 1029  
Growing Degree Days 28 (Base 50)    
Moisture  
Dew Point 20 °F    
Average Humidity 13    
Maximum Humidity 20    
Minimum Humidity 5    
Precipitation  
Precipitation 0.00 in 0.03 in 0.42 in (1966)
Month to date precipitation 0.02 0.61  
Year to date precipitation 6.17 5.15  
Sea Level Pressure  
Sea Level Pressure 29.72 in    
Wind  
Wind Speed 5 mph (WSW)    
Max Wind Speed 18 mph    
Max Gust Speed 26 mph    
Visibility 10 miles    
Events      
T = Trace of Precipitation, MM = Missing Value Source: NWS Daily Summary

Daily Weather History Graph

Daily Weather History Graph

Search for Another Location

Airport or City:

Astronomy

Aug. 23, 2019 Rise Set
Actual Time 6:39 AM MDT 8:02 PM MDT
Civil Twilight 6:12 AM MDT 8:30 PM MDT
Nautical Twilight 5:38 AM MDT 9:03 PM MDT
Astronomical Twilight 5:03 AM MDT 9:38 PM MDT
Moon 12:00 AM MDT (8/23) 2:15 PM MDT (8/23)
Length of Visible Light 14h 18m
Length of Day
13h 22m
Waning Gibbous, 49% of the Moon is Illuminated
Aug 23
Waning Gibbous
Aug 30
New
Sep 5
First Quarter
Sep 13
Full
Sep 21
Last Quarter

Hourly Weather History & Observations

Time (MDT) Temp. Dew Point Humidity Pressure Visibility Wind Dir Wind Speed Gust Speed Precip Events Conditions
12:53 AM 75.0 °F 16.0 °F 11% 29.64 in 10.0 mi Calm Calm - N/A   Clear
1:53 AM 72.0 °F 16.0 °F 12% 29.66 in 10.0 mi Calm Calm - N/A   Clear
2:53 AM 69.1 °F 16.0 °F 13% 29.66 in 10.0 mi Calm Calm - N/A   Clear
3:53 AM 66.9 °F 16.0 °F 14% 29.69 in 10.0 mi Calm Calm - N/A   Clear
4:53 AM 66.0 °F 17.1 °F 15% 29.70 in 10.0 mi WSW 3.5 mph - N/A   Clear
5:53 AM 59.0 °F 17.1 °F 20% 29.74 in 10.0 mi WSW 4.6 mph - N/A   Clear
6:53 AM 60.1 °F 19.0 °F 20% 29.76 in 10.0 mi Calm Calm - N/A   Clear
7:53 AM 64.9 °F 19.9 °F 18% 29.76 in 10.0 mi West 3.5 mph - N/A   Clear
8:53 AM 75.0 °F 30.9 °F 20% 29.77 in 10.0 mi SSE 3.5 mph - N/A   Clear
9:53 AM 82.0 °F 25.0 °F 12% 29.77 in 10.0 mi SE 4.6 mph - N/A   Clear
10:53 AM 86.0 °F 19.9 °F 9% 29.77 in 10.0 mi Calm Calm - N/A   Clear
11:53 AM 90.0 °F 18.0 °F 7% 29.75 in 10.0 mi Calm Calm - N/A   Clear
12:53 PM 93.0 °F 14.0 °F 5% 29.74 in 10.0 mi North - - N/A   Clear
1:53 PM 93.9 °F 15.1 °F 6% 29.73 in 10.0 mi North - - N/A   Clear
2:53 PM 95.0 °F 15.1 °F 5% 29.72 in 10.0 mi SSE 6.9 mph 18.4 mph N/A   Clear
3:53 PM 96.1 °F 14.0 °F 5% 29.70 in 10.0 mi North - - N/A   Clear
4:53 PM 95.0 °F 16.0 °F 6% 29.68 in 10.0 mi WSW 12.7 mph 17.3 mph N/A   Clear
5:53 PM 95.0 °F 17.1 °F 6% 29.68 in 10.0 mi WSW 9.2 mph 16.1 mph N/A   Clear
6:53 PM 91.9 °F 19.0 °F 7% 29.68 in 10.0 mi WSW 11.5 mph - N/A   Clear
7:53 PM 89.1 °F 26.1 °F 10% 29.69 in 10.0 mi WNW 17.3 mph - N/A   Clear
8:53 PM 84.9 °F 27.0 °F 12% 29.70 in 10.0 mi WNW 11.5 mph - N/A   Clear
9:53 PM 84.0 °F 28.9 °F 14% 29.73 in 10.0 mi West 10.4 mph - N/A   Clear
10:53 PM 81.0 °F 28.9 °F 15% 29.73 in 10.0 mi West 10.4 mph - N/A   Clear
11:53 PM 73.0 °F 27.0 °F 18% 29.74 in 10.0 mi Calm Calm - N/A   Clear